Preview of NWS' New Version of Forecast
This preview is not operational and should not be used for support decisions.

Regional Weather Roundup (RWR)

Issued by National Weather Service (NWS)

                            
000
ASUS43 KTOP 210259
RWRKS 

WEATHER ROUNDUP FOR KANSAS
NATIONAL WEATHER SERVICE GOODLAND KS
1000 PM CDT TUE AUG 20 2019

NOTE:  "FAIR" INDICATES FEW OR NO CLOUDS BELOW 12,000 FEET WITH NO
SIGNIFICANT WEATHER AND/OR OBSTRUCTIONS TO VISIBILITY.

KSZ001>006-013>018-027>032-041>047-210400-
NORTHWEST KANSAS
  
CITY           SKY/WX    TMP DP  RH WIND       PRES   REMARKS
GOODLAND       MOCLDY    82  58  43 SE16G26   30.02R                  
HAYS           MOCLDY    83  65  54 S14       29.85R THUNDER          
HILL CITY      MOCLDY    86  71  60 SE7       29.98R                  
RUSSELL        CLEAR     81  63  54 W9        29.93F                  
$$

KSZ061>065-074>080-084>089-210400-
SOUTHWEST KANSAS
  
CITY           SKY/WX    TMP DP  RH WIND       PRES   REMARKS
DODGE CITY     CLEAR     84  50  30 E12       30.01R                  
GARDEN CITY    CLEAR     79  54  41 SE14      30.00S                  
GREAT BEND     LGT RAIN  79  60  52 SW18G28   29.99R                  
LIBERAL        CLEAR     81  60  48 SE8       30.01R                  
$$

KSZ066>073-081>083-090>101-210400-
SOUTHEAST KANSAS
  
CITY           SKY/WX    TMP DP  RH WIND       PRES   REMARKS
CHANUTE        CLEAR     82  77  84 S7        29.99R                  
COFFEYVILLE    CLEAR     82  76  81 S5        29.98R                  
HUTCHINSON     CLEAR     88  71  57 S7        29.96R                  
MEDICINE LODGE   N/A     83  70  64 CALM      29.98R                  
NEWTON           N/A     84  75  74 S13       29.99R                  
PARSONS        CLEAR     83  77  82 CALM      30.00R                  
WICHITA INTL   MOCLDY    87  73  62 S13       29.96R                  
WICHITA JABRA  CLEAR     86  73  65 S12       29.97R                  
WICHITA MCCONL CLEAR     87  71  58 SE13      29.98R                  
WINFIELD       CLEAR     85  74  69 S9        29.99R                  
$$

KSZ007>012-019>026-033>040-048>060-102>105-210400-
NORTHEAST KANSAS
  
CITY           SKY/WX    TMP DP  RH WIND       PRES   REMARKS
CONCORDIA      PTCLDY    85  81  88 E3        29.97R HX 100           
EMPORIA        CLEAR     83  76  79 S10       29.97R                  
LAWRENCE       CLEAR     82  77  84 CALM      29.96R                  
MANHATTAN      CLEAR     85  76  74 E5        29.95R                  
OLATHE IND     CLEAR     82  77  84 SE5       30.00R                  
OLATHE EXE     CLEAR     81  78  91 S5        29.99R                  
SALINA         CLEAR     84  75  74 SW6       29.95R                  
TOPEKA BILLARD CLEAR     83  75  77 CALM      29.95R                  
TOPEKA FORBES  CLEAR     82  76  81 S5        29.97R                  
$$